CEB651 RPLL-RPVA

Flight info

Callsign CEB651
Flight time 0h 54m
Altitude 37000
Route IPATA2P IPATA B462 ARREX ARREX3R
Aircraft A320/M-SDE3FGHIRWY/LB1

Departure

Time 2026-04-17 10:57
Airport Ninoy Aquino International Airport (RPLL)

Arrival

Time 2026-04-17 11:52
Airport Daniel Z. Romualdez Airport (RPVA)
Time Latitude Longitude Altitude Speed Heading
2026-04-17 10:26 14.52536 121.00179 62 ft 0 kts 270°
2026-04-17 10:26 14.52536 121.00175 61 ft 0 kts 270°
2026-04-17 10:46 14.52536 121.00179 69 ft 3 kts 268°
2026-04-17 10:46 14.52541 121.00202 59 ft 4 kts 216°
2026-04-17 10:46 14.52559 121.00206 63 ft 3 kts 139°
2026-04-17 10:46 14.52561 121.00204 64 ft 0 kts 135°
2026-04-17 10:48 14.52551 121.00214 59 ft 6 kts 135°
2026-04-17 10:48 14.52539 121.00254 64 ft 7 kts 95°
2026-04-17 10:49 14.52540 121.00313 60 ft 14 kts 87°
2026-04-17 10:49 14.52546 121.00444 69 ft 13 kts 98°
2026-04-17 10:49 14.52498 121.00514 64 ft 12 kts 134°
2026-04-17 10:49 14.52439 121.00577 63 ft 15 kts 134°
2026-04-17 10:50 14.52361 121.00657 59 ft 16 kts 135°
2026-04-17 10:50 14.52308 121.00711 62 ft 16 kts 136°
2026-04-17 10:50 14.52207 121.00814 67 ft 15 kts 135°
2026-04-17 10:50 14.52159 121.00864 66 ft 14 kts 135°
2026-04-17 10:51 14.52091 121.00934 64 ft 13 kts 135°
2026-04-17 10:51 14.52021 121.01007 65 ft 19 kts 136°
2026-04-17 10:51 14.51919 121.01112 64 ft 22 kts 135°
2026-04-17 10:51 14.51805 121.01230 62 ft 24 kts 135°
2026-04-17 10:52 14.51688 121.01351 64 ft 24 kts 135°
2026-04-17 10:52 14.51585 121.01457 64 ft 20 kts 135°
2026-04-17 10:52 14.51481 121.01562 66 ft 22 kts 135°
2026-04-17 10:52 14.51367 121.01681 61 ft 24 kts 134°
2026-04-17 10:53 14.51251 121.01801 61 ft 21 kts 135°
2026-04-17 10:53 14.51165 121.01889 59 ft 17 kts 135°
2026-04-17 10:53 14.51085 121.01971 62 ft 13 kts 134°
2026-04-17 10:53 14.51075 121.02044 63 ft 11 kts 60°
2026-04-17 10:54 14.51114 121.02117 64 ft 15 kts 61°
2026-04-17 10:54 14.51173 121.02227 65 ft 17 kts 60°
2026-04-17 10:54 14.51230 121.02328 63 ft 16 kts 61°
2026-04-17 10:54 14.51283 121.02423 67 ft 15 kts 60°
2026-04-17 10:55 14.51332 121.02511 62 ft 14 kts 59°
2026-04-17 10:55 14.51379 121.02595 64 ft 14 kts 60°
2026-04-17 10:55 14.51446 121.02717 64 ft 22 kts 60°
2026-04-17 10:55 14.51490 121.02832 68 ft 10 kts 111°
2026-04-17 10:56 14.51439 121.02873 63 ft 9 kts 160°
2026-04-17 10:56 14.51375 121.02860 67 ft 11 kts 218°
2026-04-17 10:56 14.51347 121.02817 62 ft 0 kts 239°
2026-04-17 10:56 14.51337 121.02800 66 ft 12 kts 239°
2026-04-17 10:57 14.51183 121.02522 65 ft 83 kts 239°
2026-04-17 10:57 14.50793 121.01821 64 ft 142 kts 240°
2026-04-17 10:57 14.50229 121.00814 415 ft 164 kts 239°
2026-04-17 10:57 14.49654 120.99789 1066 ft 166 kts 236°
2026-04-17 10:58 14.49072 120.98745 1800 ft 168 kts 238°
2026-04-17 10:58 14.48470 120.97665 2274 ft 184 kts 238°
2026-04-17 10:58 14.47790 120.96449 2608 ft 206 kts 238°
2026-04-17 10:58 14.47036 120.95097 2919 ft 232 kts 239°
2026-04-17 10:59 14.46188 120.93571 3370 ft 257 kts 239°
2026-04-17 10:59 14.45271 120.91923 4023 ft 271 kts 238°
2026-04-17 10:59 14.44055 120.90431 4832 ft 276 kts 215°
2026-04-17 10:59 14.42304 120.89619 5693 ft 279 kts 188°
2026-04-17 11:00 14.40397 120.89688 6575 ft 280 kts 162°
2026-04-17 11:00 14.38629 120.90538 7421 ft 282 kts 149°
2026-04-17 11:00 14.36909 120.91550 8319 ft 286 kts 148°
2026-04-17 11:00 14.35168 120.92584 9189 ft 291 kts 148°
2026-04-17 11:01 14.33403 120.93633 10020 ft 295 kts 148°
2026-04-17 11:01 14.31609 120.94693 10778 ft 300 kts 148°
2026-04-17 11:01 14.29955 120.95997 11496 ft 303 kts 128°
2026-04-17 11:01 14.28947 120.97896 12214 ft 303 kts 103°
2026-04-17 11:02 14.28802 121.00080 12583 ft 319 kts 78°
2026-04-17 11:02 14.29658 121.02256 12916 ft 334 kts 59°
2026-04-17 11:02 14.30798 121.04352 13546 ft 340 kts 60°
2026-04-17 11:02 14.31957 121.06515 14185 ft 345 kts 60°
2026-04-17 11:03 14.33108 121.08688 14808 ft 349 kts 60°
2026-04-17 11:03 14.34270 121.10904 15441 ft 352 kts 60°
2026-04-17 11:03 14.35423 121.13115 16041 ft 355 kts 60°
2026-04-17 11:03 14.36599 121.15366 16651 ft 359 kts 60°
2026-04-17 11:04 14.37790 121.17644 17255 ft 362 kts 61°
2026-04-17 11:04 14.38720 121.20112 17858 ft 369 kts 76°
2026-04-17 11:04 14.38968 121.22717 18390 ft 375 kts 91°
2026-04-17 11:04 14.38483 121.25411 18898 ft 381 kts 108°
2026-04-17 11:05 14.37296 121.27825 19443 ft 386 kts 124°
2026-04-17 11:05 14.35640 121.30012 19983 ft 388 kts 127°
2026-04-17 11:05 14.33948 121.32203 20530 ft 390 kts 127°
2026-04-17 11:05 14.32262 121.34391 21067 ft 392 kts 127°
2026-04-17 11:06 14.30558 121.36603 21601 ft 394 kts 127°
2026-04-17 11:06 14.28844 121.38833 22121 ft 396 kts 127°
2026-04-17 11:06 14.27129 121.41059 22621 ft 399 kts 127°
2026-04-17 11:06 14.25395 121.43311 23145 ft 401 kts 127°
2026-04-17 11:07 14.23662 121.45563 23634 ft 402 kts 127°
2026-04-17 11:07 14.21915 121.47833 24026 ft 405 kts 128°
2026-04-17 11:07 14.20163 121.50106 24401 ft 408 kts 128°
2026-04-17 11:07 14.18384 121.52408 24790 ft 411 kts 128°
2026-04-17 11:08 14.16595 121.54720 25189 ft 412 kts 128°
2026-04-17 11:08 14.14828 121.57004 25567 ft 415 kts 128°
2026-04-17 11:08 14.12995 121.59378 25931 ft 419 kts 128°
2026-04-17 11:08 14.11203 121.61701 26286 ft 421 kts 128°
2026-04-17 11:09 14.09199 121.63971 26653 ft 424 kts 137°
2026-04-17 11:09 14.06888 121.65865 27013 ft 427 kts 143°
2026-04-17 11:09 14.04524 121.67660 27380 ft 429 kts 143°
2026-04-17 11:10 13.99689 121.71344 28066 ft 435 kts 143°
2026-04-17 11:10 13.97249 121.73207 28409 ft 437 kts 143°
2026-04-17 11:10 13.94804 121.75074 28762 ft 440 kts 143°
2026-04-17 11:10 13.92311 121.76974 29116 ft 442 kts 143°
2026-04-17 11:11 13.89863 121.78838 29464 ft 444 kts 143°
2026-04-17 11:11 13.87398 121.80773 29801 ft 447 kts 140°
2026-04-17 11:11 13.85195 121.83050 30121 ft 449 kts 130°
2026-04-17 11:11 13.83196 121.85514 30395 ft 451 kts 130°
2026-04-17 11:12 13.81188 121.87980 30676 ft 453 kts 130°
2026-04-17 11:12 13.79152 121.90473 30956 ft 455 kts 130°
2026-04-17 11:12 13.77110 121.92971 31214 ft 457 kts 130°
2026-04-17 11:12 13.75065 121.95475 31465 ft 459 kts 130°
2026-04-17 11:13 13.72993 121.98010 31786 ft 460 kts 130°
2026-04-17 11:13 13.70938 122.00520 32166 ft 459 kts 130°
2026-04-17 11:13 13.68881 122.03035 32543 ft 458 kts 130°
2026-04-17 11:13 13.66832 122.05539 32910 ft 458 kts 130°
2026-04-17 11:14 13.64785 122.08044 33273 ft 457 kts 130°
2026-04-17 11:14 13.62760 122.10525 33635 ft 457 kts 130°
2026-04-17 11:14 13.60721 122.13022 33987 ft 457 kts 130°
2026-04-17 11:14 13.58680 122.15522 34307 ft 456 kts 130°
2026-04-17 11:15 13.56649 122.18004 34650 ft 454 kts 130°
2026-04-17 11:15 13.54612 122.20486 34999 ft 452 kts 130°
2026-04-17 11:15 13.52586 122.22952 35372 ft 450 kts 130°
2026-04-17 11:15 13.50577 122.25399 35704 ft 448 kts 130°
2026-04-17 11:16 13.48569 122.27848 36015 ft 447 kts 130°
2026-04-17 11:16 13.46566 122.30295 36311 ft 446 kts 130°
2026-04-17 11:16 13.44564 122.32738 36622 ft 445 kts 130°
2026-04-17 11:16 13.42579 122.35156 36857 ft 445 kts 130°
2026-04-17 11:17 13.38620 122.39981 36923 ft 439 kts 130°
2026-04-17 11:17 13.34703 122.44745 36923 ft 437 kts 130°
2026-04-17 11:18 13.30804 122.49487 36926 ft 437 kts 130°
2026-04-17 11:18 13.26883 122.54271 36920 ft 437 kts 130°
2026-04-17 11:19 13.22968 122.59038 36921 ft 437 kts 130°
2026-04-17 11:19 13.19040 122.63798 36922 ft 437 kts 130°
2026-04-17 11:20 13.15106 122.68575 36923 ft 438 kts 130°
2026-04-17 11:20 13.11172 122.73351 36924 ft 438 kts 130°
2026-04-17 11:21 13.07253 122.78110 36928 ft 438 kts 130°
2026-04-17 11:21 13.03319 122.82897 36931 ft 438 kts 130°
2026-04-17 11:22 12.99392 122.87658 36933 ft 438 kts 130°
2026-04-17 11:22 12.95443 122.92433 36934 ft 438 kts 130°
2026-04-17 11:23 12.91502 122.97195 36932 ft 438 kts 130°
2026-04-17 11:23 12.87585 123.01937 36932 ft 438 kts 130°
2026-04-17 11:24 12.83629 123.06731 36934 ft 438 kts 130°
2026-04-17 11:24 12.79693 123.11501 36935 ft 438 kts 130°
2026-04-17 11:25 12.75750 123.16261 36936 ft 438 kts 130°
2026-04-17 11:25 12.71839 123.20981 36938 ft 438 kts 130°
2026-04-17 11:26 12.67864 123.25774 36938 ft 438 kts 130°
2026-04-17 11:26 12.63958 123.30495 36939 ft 438 kts 130°
2026-04-17 11:27 12.60013 123.35255 36941 ft 438 kts 130°
2026-04-17 11:27 12.56068 123.40009 36945 ft 438 kts 130°
2026-04-17 11:28 12.52133 123.44744 36945 ft 437 kts 130°
2026-04-17 11:28 12.48200 123.49470 36945 ft 437 kts 130°
2026-04-17 11:29 12.44243 123.54234 36945 ft 437 kts 130°
2026-04-17 11:29 12.40303 123.58983 36553 ft 437 kts 130°
2026-04-17 11:30 12.38369 123.61310 36072 ft 433 kts 130°
2026-04-17 11:30 12.36424 123.63648 35563 ft 431 kts 130°
2026-04-17 11:30 12.34493 123.65996 35030 ft 429 kts 130°
2026-04-17 11:30 12.32597 123.68333 34508 ft 428 kts 129°
2026-04-17 11:31 12.30696 123.70693 33962 ft 427 kts 130°
2026-04-17 11:31 12.28830 123.73014 33387 ft 426 kts 130°
2026-04-17 11:31 12.26944 123.75358 32867 ft 423 kts 130°
2026-04-17 11:31 12.25099 123.77648 32341 ft 420 kts 130°
2026-04-17 11:32 12.23223 123.79968 31811 ft 418 kts 130°
2026-04-17 11:32 12.21378 123.82249 31297 ft 415 kts 130°
2026-04-17 11:32 12.19536 123.84521 30805 ft 413 kts 130°
2026-04-17 11:32 12.17733 123.86740 30316 ft 410 kts 130°
2026-04-17 11:33 12.15891 123.89008 29808 ft 408 kts 130°
2026-04-17 11:33 12.14118 123.91192 29295 ft 404 kts 129°
2026-04-17 11:33 12.12326 123.93397 28854 ft 399 kts 129°
2026-04-17 11:33 12.10572 123.95557 28398 ft 394 kts 129°
2026-04-17 11:34 12.08837 123.97696 27960 ft 389 kts 129°
2026-04-17 11:34 12.07120 123.99817 27519 ft 385 kts 129°
2026-04-17 11:34 12.05421 124.01914 27068 ft 382 kts 129°
2026-04-17 11:34 12.03722 124.04003 26632 ft 379 kts 129°
2026-04-17 11:35 12.02050 124.06060 26156 ft 376 kts 129°
2026-04-17 11:35 12.00387 124.08103 25693 ft 375 kts 128°
2026-04-17 11:35 11.98737 124.10132 25211 ft 373 kts 128°
2026-04-17 11:35 11.97054 124.12198 24736 ft 372 kts 128°
2026-04-17 11:36 11.95421 124.14200 24250 ft 372 kts 129°
2026-04-17 11:36 11.93766 124.16232 23776 ft 372 kts 128°
2026-04-17 11:36 11.92114 124.18263 23225 ft 372 kts 128°
2026-04-17 11:36 11.90445 124.20313 22714 ft 370 kts 128°
2026-04-17 11:37 11.88822 124.22308 22234 ft 368 kts 128°
2026-04-17 11:37 11.87192 124.24308 21759 ft 366 kts 128°
2026-04-17 11:37 11.85564 124.26302 21298 ft 365 kts 128°
2026-04-17 11:37 11.83951 124.28283 20840 ft 363 kts 128°
2026-04-17 11:38 11.82342 124.30265 20384 ft 361 kts 128°
2026-04-17 11:38 11.80736 124.32242 19905 ft 360 kts 128°
2026-04-17 11:38 11.79137 124.34205 19466 ft 359 kts 129°
2026-04-17 11:38 11.77536 124.36167 19019 ft 358 kts 128°
2026-04-17 11:39 11.75962 124.38097 18570 ft 357 kts 128°
2026-04-17 11:39 11.74380 124.40037 18124 ft 357 kts 128°
2026-04-17 11:39 11.72788 124.41984 17633 ft 355 kts 129°
2026-04-17 11:39 11.71221 124.43904 17206 ft 352 kts 129°
2026-04-17 11:40 11.69653 124.45833 16783 ft 350 kts 129°
2026-04-17 11:40 11.68114 124.47722 16367 ft 348 kts 128°
2026-04-17 11:40 11.66565 124.49621 15944 ft 347 kts 128°
2026-04-17 11:40 11.65037 124.51486 15526 ft 346 kts 128°
2026-04-17 11:41 11.63483 124.53388 15116 ft 345 kts 128°
2026-04-17 11:41 11.61949 124.55268 14702 ft 344 kts 128°
2026-04-17 11:41 11.60418 124.57143 14285 ft 343 kts 129°
2026-04-17 11:41 11.58912 124.58983 13881 ft 342 kts 129°
2026-04-17 11:42 11.57398 124.60831 13466 ft 341 kts 128°
2026-04-17 11:42 11.55891 124.62672 13070 ft 337 kts 128°
2026-04-17 11:42 11.54384 124.64513 12691 ft 333 kts 128°
2026-04-17 11:42 11.52908 124.66316 12299 ft 330 kts 129°
2026-04-17 11:43 11.51436 124.68116 11882 ft 329 kts 128°
2026-04-17 11:43 11.50072 124.69953 11407 ft 322 kts 118°
2026-04-17 11:43 11.49188 124.72023 10931 ft 317 kts 108°
2026-04-17 11:43 11.48701 124.73420 10668 ft 316 kts 108°
2026-04-17 11:44 11.47945 124.75552 10237 ft 315 kts 109°
2026-04-17 11:44 11.47208 124.77601 9842 ft 314 kts 109°
2026-04-17 11:44 11.46456 124.79672 9419 ft 311 kts 109°
2026-04-17 11:44 11.45718 124.81704 8955 ft 298 kts 109°
2026-04-17 11:45 11.45014 124.83646 8536 ft 285 kts 109°
2026-04-17 11:45 11.44346 124.85498 8128 ft 273 kts 109°
2026-04-17 11:45 11.43708 124.87273 7732 ft 262 kts 109°
2026-04-17 11:45 11.43085 124.89000 7338 ft 253 kts 109°
2026-04-17 11:46 11.42488 124.90662 6954 ft 247 kts 109°
2026-04-17 11:46 11.41906 124.92284 6567 ft 241 kts 109°
2026-04-17 11:46 11.41396 124.93883 6184 ft 236 kts 99°
2026-04-17 11:46 11.41246 124.95539 5773 ft 232 kts 92°
2026-04-17 11:47 11.41146 124.97165 5379 ft 229 kts 92°
2026-04-17 11:47 11.41044 124.98756 4987 ft 226 kts 92°
2026-04-17 11:47 11.40937 125.00378 4586 ft 225 kts 92°
2026-04-17 11:47 11.40803 125.01939 4189 ft 218 kts 101°
2026-04-17 11:48 11.40087 125.03240 3796 ft 209 kts 139°
2026-04-17 11:48 11.38800 125.03821 3451 ft 201 kts 175°
2026-04-17 11:48 11.37437 125.03747 3064 ft 193 kts 186°
2026-04-17 11:48 11.36117 125.03652 2693 ft 188 kts 185°
2026-04-17 11:49 11.34858 125.03572 2349 ft 179 kts 184°
2026-04-17 11:49 11.33631 125.03493 2007 ft 172 kts 183°
2026-04-17 11:49 11.32461 125.03417 1690 ft 168 kts 182°
2026-04-17 11:49 11.31310 125.03340 1452 ft 163 kts 180°
2026-04-17 11:50 11.30196 125.03265 1246 ft 157 kts 181°
2026-04-17 11:50 11.29104 125.03191 1049 ft 154 kts 181°
2026-04-17 11:50 11.28047 125.03121 851 ft 150 kts 181°
2026-04-17 11:50 11.27015 125.03055 703 ft 147 kts 182°
2026-04-17 11:51 11.26007 125.02996 491 ft 145 kts 182°
2026-04-17 11:51 11.25017 125.02943 272 ft 143 kts 183°
2026-04-17 11:51 11.24030 125.02868 104 ft 142 kts 184°
2026-04-17 11:51 11.23063 125.02794 11 ft 125 kts 186°
2026-04-17 11:52 11.22382 125.02751 13 ft 73 kts 184°
2026-04-17 11:52 11.22041 125.02728 14 ft 34 kts 184°
2026-04-17 11:52 11.21891 125.02719 13 ft 9 kts 183°
2026-04-17 11:52 11.21842 125.02741 12 ft 7 kts 167°
2026-04-17 11:53 11.21814 125.02715 14 ft 3 kts 280°
2026-04-17 11:53 11.21843 125.02712 12 ft 7 kts
2026-04-17 11:53 11.21917 125.02721 13 ft 14 kts
2026-04-17 11:53 11.22037 125.02726 16 ft 20 kts
2026-04-17 11:54 11.22188 125.02736 16 ft 23 kts
2026-04-17 11:54 11.22362 125.02748 14 ft 26 kts
2026-04-17 11:54 11.22510 125.02758 14 ft 17 kts
2026-04-17 11:54 11.22566 125.02720 16 ft 8 kts 302°
2026-04-17 11:55 11.22610 125.02683 15 ft 8 kts 347°
2026-04-17 11:55 11.22664 125.02688 13 ft 7 kts
2026-04-17 11:55 11.22710 125.02682 12 ft 3 kts 322°
2026-04-17 11:55 11.22722 125.02668 12 ft 0 kts 310°
2026-04-17 11:56 11.22726 125.02663 12 ft 3 kts 310°
2026-04-17 11:56 11.22730 125.02658 12 ft 0 kts 309°